Weather in Tamazatyube-Novoye

Russia / Republic of Dagestan     43°34′44″N   47°09′08″E
temp.,
°C
wind,
m/s
gust,
m/s
humid.,
%
clouds,
%
prec.,
mm/h
press.,
hPa
HPBL,
m
10 august, wed
wed1000:00+23s11430 0.0 101311
03:00+22ne22520 0.0 101217
06:00+24ene25640 0.0 1013150
09:00+30ese67420 0.0 10121015
12:00+32e810360 0.0 10111266
15:00+31ese911350 0.0 10091128
18:00+28ese812500 0.0 1009764
21:00+25ese815650 0.0 1009463
11 august, thu
thu1100:00+26ese916620 0.0 1008508
03:00+26ese917680 0.0 1007580
06:00+26ese916650 0.0 1008709
09:00+31ese1117390 0.0 10081271
12:00+32ese1217400 0.0 10081343
15:00+32ese1218400 0.0 10071235
18:00+29ese1117571 0.0 1007932
21:00+27ese1019581 0.0 1008740
12 august, fri
fri1200:00+27ese917550 0.0 1009575
03:00+26ese716610 0.0 1009534
06:00+27ese815640 0.1 1010611
09:00+32se1114430 0.1 1011918
12:00+33ese1215390 0.1 10111137
15:00+32ese1115393 0.1 10111017
18:00+28ese9144930 0.0 1012733
21:00+26ese61263100 0.0 1012349
13 august, sat
sat1300:00+25e5107314 0.3 1011278
03:00+24e49754 0.3 1011169
06:00+26ese49640 0.0 1012279
09:00+32ese78310 0.0 1011780
12:00+33ese1013350 0.0 10111080
15:00+32ese1114360 0.0 10101019
18:00+29ese815484 0.0 1011711
21:00+25e510763 0.0 1011267
14 august, sun
sun1400:00+25ese510733 0.0 1010191
03:00+24ese510712 0.0 1009184
06:00+26ese510632 0.0 1009280
09:00+33ese710260 0.0 1009878
12:00+35ese911230 0.0 10081026
15:00+33ese1115330 0.0 10081096
18:00+29ese916520 0.0 1008679
21:00+27ese715630 0.0 1009372